GW3329 Weather Reports


time (UTC)temp
C
wind
direction
speed
KPH
gust
KPH
rain 1hr
cm
rain 24hr
cm
rain mn
cm
humidity
%
barometer
mb
20260903182533 26 165 1.6 6.4 0.00 0.00 0.00 58 1017.8
20260903182030 26 59 1.6 3.2 0.00 0.00 0.00 59 1017.8
20260903181528 26 138 1.6 4.8 0.00 0.00 0.00 59 1017.8
20260903181023 26 121 1.6 6.4 0.00 0.00 0.00 59 1017.7
20260903180519 25 97 3.2 4.8 0.00 0.00 0.00 59 1017.7
20260903180018 25 67 0.0 3.2 0.00 0.00 0.00 60 1017.9
20260903175517 25 186 4.8 6.4 0.00 0.00 0.00 59 1017.9
20260903175017 25 151 0.0 1.6 0.00 0.00 0.00 62 1017.9
20260903174511 25 186 1.6 3.2 0.00 0.00 0.00 60 1017.9
20260903174006 25 158 3.2 4.8 0.00 0.00 0.00 62 1018.1
20260903173501 24 102 1.6 4.8 0.00 0.00 0.00 64 1017.9
20260903172957 25 132 1.6 3.2 0.00 0.00 0.00 63 1017.9
20260903172457 24 137 0.0 1.6 0.00 0.00 0.00 64 1018.1
20260903171952 23 71 0.0 1.6 0.00 0.00 0.00 66 1018.2
20260903171447 23 90 3.2 4.8 0.00 0.00 0.00 66 1018.0
20260903170942 23 109 0.0 4.8 0.00 0.00 0.00 67 1018.1
20260903170437 23 89 3.2 3.2 0.00 0.00 0.00 67 1018.0
20260903165936 23 116 1.6 3.2 0.00 0.00 0.00 67 1018.2
20260903165430 22 133 1.6 3.2 0.00 0.00 0.00 68 1018.1
20260903164924 22 89 0.0 6.4 0.00 0.00 0.00 68 1018.0
20260903164419 23 118 1.6 6.4 0.00 0.00 0.00 70 1017.9
20260903163919 22 57 3.2 3.2 0.00 0.00 0.00 70 1018.0
20260903163415 22 90 1.6 4.8 0.00 0.00 0.00 72 1018.0
20260903162911 22 80 6.4 11.3 0.00 0.00 0.00 72 1018.1
20260903162408 22 86 3.2 9.7 0.00 0.00 0.00 72 1018.1
20260903161903 21 141 3.2 9.7 0.00 0.00 0.00 74 1018.1
20260903161358 21 146 3.2 9.7 0.00 0.00 0.00 74 1018.0
20260903160854 21 147 0.0 4.8 0.00 0.00 0.00 76 1018.0
20260903160353 21 98 3.2 6.4 0.00 0.00 0.00 76 1018.0
20260903155851 21 141 3.2 6.4 0.00 0.00 0.00 77 1018.1
20260903155347 20 109 1.6 6.4 0.00 0.00 0.00 78 1018.2
20260903154842 20 71 3.2 4.8 0.00 0.00 0.00 79 1018.2
20260903154338 20 136 1.6 9.7 0.00 0.00 0.00 80 1018.0
20260903153833 20 89 3.2 9.7 0.00 0.00 0.00 80 1018.2
20260903153329 20 108 1.6 1.6 0.00 0.00 0.00 80 1018.3
20260903152826 20 147 1.6 6.4 0.00 0.00 0.00 81 1018.0
20260903152321 20 77 3.2 3.2 0.00 0.00 0.00 82 1018.0
20260903151816 19 177 4.8 9.7 0.00 0.00 0.00 82 1018.2
20260903151312 19 149 0.0 4.8 0.00 0.00 0.00 83 1018.2
20260903150812 18 74 4.8 4.8 0.00 0.00 0.00 83 1018.0
20260903150311 18 146 4.8 6.4 0.00 0.00 0.00 83 1018.1
20260903145806 18 111 3.2 6.4 0.00 0.00 0.00 84 1018.1
20260903145305 18 136 0.0 3.2 0.00 0.00 0.00 84 1018.1
20260903144800 18 110 0.0 1.6 0.00 0.00 0.00 85 1018.1
20260903144256 18 127 0.0 1.6 0.00 0.00 0.00 85 1018.1
20260903143752 17 125 0.0 1.6 0.00 0.00 0.00 86 1018.1
20260903143248 17 118 0.0 1.6 0.00 0.00 0.00 86 1018.1
20260903142743 16 128 0.0 1.6 0.00 0.00 0.00 86 1018.0
20260903142239 16 121 0.0 0.0 0.00 0.00 0.00 87 1017.6
20260903141735 16 124 0.0 0.0 0.00 0.00 0.00 88 1017.9
20260903141230 15 121 0.0 0.0 0.00 0.00 0.00 89 1017.8
20260903140725 15 147 0.0 0.0 0.00 0.00 0.00 91 1017.7
20260903140220 15 141 0.0 0.0 0.00 0.00 0.00 92 1017.6
20260903135716 14 164 1.6 3.2 0.00 0.00 0.00 93 1017.8
20260903135211 13 149 0.0 0.0 0.00 0.00 0.00 93 1017.9
20260903134710 13 157 0.0 0.0 0.00 0.00 0.00 94 1017.8
20260903134206 13 149 0.0 0.0 0.00 0.00 0.00 93 1017.8
20260903133704 13 148 0.0 0.0 0.00 0.00 0.00 93 1017.8
20260903133200 13 149 0.0 0.0 0.00 0.00 0.00 93 1017.8
20260903132700 13 140 0.0 0.0 0.00 0.00 0.00 94 1017.7
20260903132154 13 136 0.0 0.0 0.00 0.00 0.00 94 1017.7
20260903131649 13 143 0.0 0.0 0.00 0.00 0.00 94 1017.6
20260903131148 13 142 0.0 0.0 0.00 0.00 0.00 94 1017.7
20260903130643 13 146 0.0 0.0 0.00 0.00 0.00 94 1017.6
20260903130138 13 159 0.0 0.0 0.00 0.00 0.00 94 1017.8
20260903125636 13 159 0.0 0.0 0.00 0.00 0.00 94 1017.7
20260903125131 13 159 0.0 0.0 0.00 0.00 0.00 93 1017.6
20260903124625 13 159 0.0 0.0 0.00 0.00 0.00 93 1017.5
20260903124119 13 159 0.0 0.0 0.00 0.00 0.00 93 1017.8
20260903123614 13 159 0.0 0.0 0.00 0.00 0.00 93 1017.6
20260903123113 13 159 0.0 0.0 0.00 0.00 0.00 93 1017.8
20260903122613 13 159 0.0 0.0 0.00 0.00 0.00 93 1017.6
20260903122112 13 159 0.0 0.0 0.00 0.00 0.00 93 1017.7
20260903121607 13 160 0.0 0.0 0.00 0.00 0.00 93 1017.6
20260903121102 13 153 0.0 0.0 0.00 0.00 0.00 93 1017.6
20260903120600 13 153 0.0 0.0 0.00 0.00 0.00 93 1017.9
20260903120050 13 157 0.0 0.0 0.00 0.00 0.00 93 1017.8
20260903115549 13 157 0.0 0.0 0.00 0.00 0.00 93 1017.8
20260903115044 13 155 0.0 0.0 0.00 0.00 0.00 93 1017.8
20260903114539 13 153 0.0 0.0 0.00 0.00 0.00 93 1017.9
20260903114035 13 148 0.0 0.0 0.00 0.00 0.00 93 1017.9
20260903113530 13 153 0.0 0.0 0.00 0.00 0.00 93 1017.9
20260903113026 13 166 0.0 0.0 0.00 0.00 0.00 94 1017.7
20260903112521 13 149 0.0 0.0 0.00 0.00 0.00 94 1017.8
20260903112016 13 149 0.0 0.0 0.00 0.00 0.00 94 1017.7
20260903111515 13 149 0.0 0.0 0.00 0.00 0.00 94 1017.9
20260903111011 13 149 0.0 0.0 0.00 0.00 0.00 94 1017.9
20260903110507 14 149 0.0 0.0 0.00 0.00 0.00 95 1017.8
20260903110007 14 149 0.0 0.0 0.00 0.00 0.00 95 1018.0
20260903105501 14 149 0.0 0.0 0.00 0.00 0.00 95 1018.0
20260903104956 14 149 0.0 0.0 0.00 0.00 0.00 96 1018.2
20260903104456 14 149 0.0 0.0 0.00 0.00 0.00 96 1018.3
20260903103953 14 149 0.0 0.0 0.00 0.00 0.00 96 1018.1
20260903103448 14 149 0.0 0.0 0.00 0.00 0.00 96 1018.2
20260903102944 14 149 0.0 0.0 0.00 0.00 0.00 96 1017.9
20260903102439 14 149 0.0 0.0 0.00 0.00 0.00 96 1018.1
20260903101937 14 149 0.0 0.0 0.00 0.00 0.00 96 1018.3
20260903101433 14 149 0.0 0.0 0.00 0.00 0.00 96 1018.0
20260903100928 14 147 0.0 0.0 0.00 0.00 0.00 96 1017.8
20260903100423 14 148 0.0 0.0 0.00 0.00 0.00 96 1018.2
20260903095920 14 147 0.0 0.0 0.00 0.00 0.00 95 1018.1
20260903095415 14 146 0.0 0.0 0.00 0.00 0.00 95 1018.1
20260903094910 14 149 0.0 0.0 0.00 0.00 0.00 95 1018.0
20260903094408 15 161 0.0 0.0 0.00 0.00 0.00 95 1018.1
20260903093905 15 157 0.0 0.0 0.00 0.00 0.00 95 1018.3
20260903093400 15 158 0.0 0.0 0.00 0.00 0.00 96 1018.4
20260903092856 15 149 0.0 0.0 0.00 0.00 0.00 96 1018.3
20260903092355 15 144 0.0 1.6 0.00 0.00 0.00 96 1018.5
20260903091853 15 171 0.0 0.0 0.00 0.00 0.00 95 1018.4
20260903091353 15 140 0.0 0.0 0.00 0.00 0.00 95 1018.3
20260903090848 15 158 0.0 0.0 0.00 0.00 0.00 95 1018.4
20260903090343 15 157 0.0 0.0 0.00 0.00 0.00 94 1018.4
20260903085841 15 149 0.0 0.0 0.00 0.00 0.00 94 1018.5
20260903085336 15 151 0.0 0.0 0.00 0.00 0.00 94 1018.4
20260903084835 15 153 0.0 0.0 0.00 0.00 0.00 94 1018.6
20260903084334 15 157 0.0 0.0 0.00 0.00 0.00 94 1018.7
20260903083830 15 157 0.0 0.0 0.00 0.00 0.00 94 1018.7
20260903083325 15 158 0.0 0.0 0.00 0.00 0.00 94 1018.5
20260903082824 15 158 0.0 0.0 0.00 0.00 0.00 95 1018.6
20260903082319 15 164 0.0 0.0 0.00 0.00 0.00 95 1018.4
20260903081815 15 157 0.0 0.0 0.00 0.00 0.00 95 1018.8
20260903081310 15 157 0.0 0.0 0.00 0.00 0.00 95 1018.6
20260903080807 15 165 0.0 0.0 0.00 0.00 0.00 94 1018.6
20260903080303 15 158 0.0 0.0 0.00 0.00 0.00 95 1018.5
20260903075802 15 160 0.0 0.0 0.00 0.00 0.00 94 1018.5
20260903075258 15 156 0.0 0.0 0.00 0.00 0.00 95 1018.6
20260903074757 15 157 0.0 0.0 0.00 0.00 0.00 94 1018.7
20260903074252 15 142 0.0 0.0 0.00 0.00 0.00 94 1018.4
20260903073747 15 149 0.0 0.0 0.00 0.00 0.00 94 1018.7
20260903073242 15 155 0.0 0.0 0.00 0.00 0.00 94 1018.7
20260903072738 16 155 0.0 0.0 0.00 0.00 0.00 94 1018.7
20260903072234 16 155 0.0 0.0 0.00 0.00 0.00 94 1018.4
20260903071731 16 157 0.0 0.0 0.00 0.00 0.00 94 1018.6
20260903071226 16 156 0.0 0.0 0.00 0.00 0.00 93 1018.7
20260903070726 16 155 0.0 0.0 0.00 0.00 0.00 93 1018.7
20260903070222 16 155 0.0 0.0 0.00 0.00 0.00 93 1018.8
20260903065717 16 160 0.0 0.0 0.00 0.00 0.00 93 1018.7
20260903065211 16 155 0.0 0.0 0.00 0.00 0.00 94 1018.4
20260903064710 16 260 1.6 3.2 0.00 0.00 0.00 94 1018.8
20260903064205 16 198 1.6 1.6 0.00 0.00 0.00 93 1018.6
20260903063701 16 161 0.0 0.0 0.00 0.00 0.00 94 1018.8
20260903063156 16 153 0.0 0.0 0.00 0.00 0.00 94 1018.6
20260903062652 16 156 0.0 0.0 0.00 0.00 0.00 94 1018.5
20260903062147 16 147 0.0 0.0 0.00 0.00 0.00 94 1018.6
20260903061642 16 161 0.0 0.0 0.00 0.00 0.00 94 1018.6
20260903061141 16 157 0.0 0.0 0.00 0.00 0.00 93 1018.6
20260903060637 16 157 0.0 0.0 0.00 0.00 0.00 93 1018.6
20260903060132 16 162 0.0 0.0 0.00 0.00 0.00 93 1018.8
20260903055629 16 166 0.0 0.0 0.00 0.00 0.00 93 1018.5
20260903055128 16 163 0.0 0.0 0.00 0.00 0.00 94 1018.6
20260903054622 16 153 0.0 0.0 0.00 0.00 0.00 94 1018.8
20260903054118 16 157 0.0 0.0 0.00 0.00 0.00 93 1018.7
20260903053614 16 148 0.0 0.0 0.00 0.00 0.00 93 1018.8
20260903053109 16 157 0.0 0.0 0.00 0.00 0.00 93 1018.8
20260903052605 16 160 0.0 0.0 0.00 0.00 0.00 93 1018.7
20260903052100 16 162 0.0 0.0 0.00 0.00 0.00 93 1018.9
20260903051555 16 153 0.0 0.0 0.00 0.00 0.00 92 1018.8
20260903051051 16 153 0.0 0.0 0.00 0.00 0.00 91 1018.8
20260903050550 16 157 0.0 0.0 0.00 0.00 0.00 91 1018.8
20260903050046 17 161 0.0 0.0 0.00 0.00 0.00 92 1018.9
20260903045544 17 169 0.0 1.6 0.00 0.00 0.00 91 1018.9
20260903045042 17 163 0.0 0.0 0.00 0.00 0.00 90 1018.8
20260903044537 17 166 0.0 0.0 0.00 0.00 0.00 90 1019.0
20260903044032 17 151 0.0 0.0 0.00 0.00 0.00 89 1018.9
20260903043528 17 178 1.6 1.6 0.00 0.00 0.00 90 1019.0
20260903043027 17 193 0.0 0.0 0.00 0.00 0.00 89 1019.0
20260903042521 17 159 0.0 0.0 0.00 0.00 0.00 88 1018.9
20260903042017 17 177 0.0 0.0 0.00 0.00 0.00 88 1018.9
20260903041515 17 165 0.0 0.0 0.00 0.00 0.00 87 1019.1
20260903041014 17 174 0.0 1.6 0.00 0.00 0.00 87 1018.9
20260903040513 17 169 0.0 1.6 0.00 0.00 0.00 86 1019.0
20260903040010 17 212 0.0 3.2 0.00 0.00 0.00 86 1018.8
20260903035505 17 158 0.0 1.6 0.00 0.00 0.00 86 1018.8
20260903035000 18 153 0.0 0.0 0.00 0.00 0.00 85 1018.6
20260903034455 18 183 1.6 3.2 0.00 0.00 0.00 85 1018.5
20260903033955 18 180 1.6 3.2 0.00 0.00 0.00 84 1018.7
20260903033451 18 203 3.2 3.2 0.00 0.00 0.00 83 1018.4
20260903032946 18 163 0.0 0.0 0.00 0.00 0.00 81 1018.6
20260903032436 18 194 1.6 1.6 0.00 0.00 0.00 81 1018.6
20260903031931 18 183 0.0 0.0 0.00 0.00 0.00 79 1018.8
20260903031430 19 181 0.0 0.0 0.00 0.00 0.00 77 1018.5
20260903030925 19 170 0.0 1.6 0.00 0.00 0.00 76 1018.4
20260903030416 19 153 0.0 0.0 0.00 0.00 0.00 74 1018.3
20260903025912 20 166 0.0 1.6 0.00 0.00 0.00 71 1018.3
20260903025408 20 158 0.0 0.0 0.00 0.00 0.00 69 1018.3
20260903024903 20 161 0.0 1.6 0.00 0.00 0.00 67 1018.3
20260903024401 20 205 1.6 1.6 0.00 0.00 0.00 66 1018.5
20260903023856 20 166 1.6 3.2 0.00 0.00 0.00 65 1018.3
20260903023352 20 187 1.6 4.8 0.00 0.00 0.00 64 1018.5
20260903022847 20 175 0.0 0.0 0.00 0.00 0.00 62 1018.3
20260903022346 21 143 3.2 4.8 0.00 0.00 0.00 62 1018.4
20260903021845 21 204 1.6 4.8 0.00 0.00 0.00 61 1018.3
20260903021341 21 148 0.0 3.2 0.00 0.00 0.00 61 1018.4
20260903020841 21 135 0.0 3.2 0.00 0.00 0.00 61 1018.2
20260903020337 21 136 3.2 4.8 0.00 0.00 0.00 59 1018.2
20260903015836 21 179 1.6 4.8 0.00 0.00 0.00 58 1018.3
20260903015332 21 176 3.2 9.7 0.00 0.00 0.00 57 1018.2
20260903014828 21 226 3.2 3.2 0.00 0.00 0.00 55 1018.4
20260903014327 22 173 0.0 9.7 0.00 0.00 0.00 54 1018.3
20260903013822 22 238 6.4 9.7 0.00 0.00 0.00 53 1018.4
20260903013321 22 249 1.6 3.2 0.00 0.00 0.00 53 1018.5
20260903012820 22 167 3.2 6.4 0.00 0.00 0.00 53 1018.5
20260903012315 22 218 3.2 4.8 0.00 0.00 0.00 53 1018.3
20260903011809 23 182 4.8 9.7 0.00 0.00 0.00 53 1018.3
20260903011308 23 209 6.4 11.3 0.00 0.00 0.00 54 1018.3
20260903010803 23 114 3.2 4.8 0.00 0.00 0.00 53 1018.2
20260903010259 23 176 1.6 6.4 0.00 0.00 0.00 52 1018.3
20260903005757 23 258 3.2 9.7 0.00 0.00 0.00 52 1018.3
20260903005247 23 261 6.4 9.7 0.00 0.00 0.00 52 1018.3
20260903004742 23 220 4.8 6.4 0.00 0.00 0.00 52 1018.3
20260903004237 23 146 3.2 9.7 0.00 0.00 0.00 52 1018.3
20260903003733 24 325 6.4 11.3 0.00 0.00 0.00 51 1018.3
20260903003228 25 174 4.8 11.3 0.00 0.00 0.00 50 1018.2
20260903002723 25 284 4.8 12.9 0.00 0.00 0.00 49 1018.2
20260903002217 25 178 3.2 3.2 0.00 0.00 0.00 50 1018.3
20260903001713 25 193 4.8 6.4 0.00 0.00 0.00 49 1018.4
20260903001206 25 200 3.2 4.8 0.00 0.00 0.00 48 1018.3
20260903000702 25 260 3.2 12.9 0.00 0.00 0.00 47 1018.3
20260903000201 25 250 3.2 12.9 0.00 0.00 0.00 46 1018.4
20260902235654 25 177 9.7 14.5 0.00 0.00 0.00 42 1018.3
20260902235150 25 251 4.8 14.5 0.00 0.00 0.00 43 1018.5
20260902234644 25 159 3.2 9.7 0.00 0.00 0.00 43 1018.3
20260902234143 25 301 3.2 12.9 0.00 0.00 0.00 43 1018.5
20260902233637 25 250 6.4 11.3 0.00 0.00 0.00 44 1018.4
20260902233131 25 176 1.6 4.8 0.00 0.00 0.00 45 1018.2
20260902232631 25 228 1.6 6.4 0.00 0.00 0.00 51 1018.6
20260902232130 25 274 6.4 14.5 0.00 0.00 0.00 52 1018.6
20260902231624 25 251 6.4 11.3 0.00 0.00 0.00 53 1018.5
20260902231124 25 186 4.8 22.5 0.00 0.00 0.00 54 1018.4
20260902230620 25 116 3.2 11.3 0.00 0.00 0.00 55 1018.5
20260902230118 25 276 6.4 9.7 0.00 0.00 0.00 55 1018.5
20260902225613 25 271 4.8 12.9 0.00 0.00 0.00 55 1018.5
20260902225113 26 127 1.6 3.2 0.00 0.00 0.00 54 1018.6
20260902224612 25 209 3.2 11.3 0.00 0.00 0.00 56 1018.7
20260902224107 25 144 9.7 20.9 0.00 0.00 0.00 57 1018.6
20260902223604 26 256 6.4 11.3 0.00 0.00 0.00 56 1018.8
20260902223103 26 277 6.4 12.9 0.00 0.00 0.00 56 1018.9
20260902222601 26 299 3.2 9.7 0.00 0.00 0.00 56 1018.8
20260902222100 26 195 1.6 6.4 0.00 0.00 0.00 55 1018.8
20260902221556 26 272 8.0 14.5 0.00 0.00 0.00 55 1019.1
20260902221056 25 221 6.4 9.7 0.00 0.00 0.00 57 1019.0
20260902220551 26 187 1.6 6.4 0.00 0.00 0.00 55 1019.0
20260902220046 26 207 8.0 11.3 0.00 0.00 0.00 55 1019.1
20260902215543 26 231 3.2 9.7 0.00 0.00 0.00 55 1019.0
20260902215038 26 257 8.0 12.9 0.00 0.00 0.00 55 1019.0
20260902214537 26 186 8.0 12.9 0.00 0.00 0.00 54 1019.2
20260902214036 26 172 9.7 16.1 0.00 0.00 0.00 55 1019.0
20260902213532 26 276 3.2 12.9 0.00 0.00 0.00 57 1019.3
20260902213031 26 356 6.4 9.7 0.00 0.00 0.00 57 1019.0
20260902212527 26 278 6.4 12.9 0.00 0.00 0.00 57 1019.2
20260902212023 26 182 16.1 17.7 0.00 0.00 0.00 57 1019.4
20260902211519 26 184 3.2 16.1 0.00 0.00 0.00 56 1019.1
20260902211014 26 276 3.2 9.7 0.00 0.00 0.00 56 1019.4
20260902210509 26 146 0.0 6.4 0.00 0.00 0.00 57 1019.3
20260902210008 26 197 1.6 3.2 0.00 0.00 0.00 56 1019.3
20260902205502 26 269 8.0 12.9 0.00 0.00 0.00 58 1019.7
20260902204958 26 316 9.7 14.5 0.00 0.00 0.00 57 1019.4
20260902204457 25 184 1.6 14.5 0.00 0.00 0.00 59 1019.7
20260902203953 26 18 4.8 4.8 0.00 0.00 0.00 59 1019.6
20260902203449 26 116 1.6 4.8 0.00 0.00 0.00 57 1019.3
20260902202947 26 231 3.2 9.7 0.00 0.00 0.00 58 1019.3
20260902202443 25 174 3.2 4.8 0.00 0.00 0.00 59 1019.4
20260902201940 26 81 0.0 9.7 0.00 0.00 0.00 59 1019.6
20260902201435 26 17 1.6 12.9 0.00 0.00 0.00 57 1019.6
20260902200934 26 244 4.8 11.3 0.00 0.00 0.00 57 1019.9
20260902200429 26 226 6.4 11.3 0.00 0.00 0.00 58 1019.8
20260902195925 26 110 3.2 4.8 0.00 0.00 0.00 58 1019.7
20260902195421 25 41 0.0 11.3 0.00 0.00 0.00 58 1019.9
20260902194915 26 15 9.7 16.1 0.00 0.00 0.00 58 1020.1
20260902194414 26 51 1.6 4.8 0.00 0.00 0.00 59 1020.0
20260902193909 25 218 3.2 12.9 0.00 0.00 0.00 59 1020.2
20260902193405 26 242 6.4 11.3 0.00 0.00 0.00 59 1020.0
20260902192903 26 124 1.6 14.5 0.00 0.00 0.00 60 1019.8
20260902192402 26 309 3.2 4.8 0.00 0.00 0.00 60 1020.1
20260902191857 26 228 8.0 12.9 0.00 0.00 0.00 58 1020.0
20260902191352 26 197 1.6 4.8 0.00 0.00 0.00 57 1020.1
20260902190842 26 214 3.2 4.8 0.00 0.00 0.00 57 1020.2
20260902190341 26 65 3.2 3.2 0.00 0.00 0.00 57 1020.2
20260902185838 25 229 1.6 4.8 0.00 0.00 0.00 57 1020.1
20260902185332 25 353 3.2 6.4 0.00 0.00 0.00 56 1020.0
20260902184828 26 301 6.4 11.3 0.00 0.00 0.00 55 1020.2
20260902184324 26 236 3.2 4.8 0.00 0.00 0.00 54 1020.3
20260902183819 26 103 1.6 4.8 0.00 0.00 0.00 54 1020.0
20260902183315 25 156 0.0 3.2 0.00 0.00 0.00 54 1020.2